Regional Weather Roundup
Issued by NWS State College, PA

Home | Current Version | Previous Version | Text Only | Print | Product List | Glossary On
Versions: 1 2 3 4 5 6 7 8 9 10 11 12 13 14 15 16 17 18 19 20 21 22 23 24 25 26 27 28 29 30 31 32 33 34 35 36 37 38 39 40 41 42 43 44 45 46 47 48 49 50
000
ASUS41 KCTP 290510
RWRCTP

REGIONAL WEATHER ROUNDUP
NATIONAL WEATHER SERVICE STATE COLLEGE PA
100 AM EDT TUE JUL 29 2014

Note: "fair" indicates few or no clouds below 12,000 feet with no
significant weather and/or obstructions to visibility.

* = STATION THAT DOES NOT REPORT PRECIPITATION /E.G. RAIN...SNOW...ETC/
    THUNDER OR FOG.

PAZ002>004-007>009-013>016-020>023-029>032-290600-
WESTERN PENNSYLVANIA

CITY           SKY/WX    TMP DP  RH WIND       PRES   REMARKS
ERIE           CLOUDY    60  49  66 N10       29.92F
MEADVILLE      CLOUDY    53  47  79 MISG      29.93F
FRANKLIN*      CLEAR     48  45  87 W3        29.94F
NEW CASTLE       N/A     54  52  93 CALM      29.97S
BEAVER COUNTY  NOT AVBL
BUTLER*        CLEAR     52  46  82 W5        29.96S
PITTSBURGH INT PTCLDY    55  52  89 W3        29.96S
PITTSBURGH     CLEAR     55  50  83 NW5       29.94S
INDIANA*       MOCLDY    54  50  87 NW3       29.97F
LATROBE        MOCLDY    55  55 100 CALM      29.96R
WASHINGTON CO* MOCLDY    52  48  87 NW3       29.97S
$$

PAZ004>006-010>012-017>019-024>028-033>037-041-042-045-046-049>053-290600-
CENTRAL PENNSYLVANIA

CITY           SKY/WX    TMP DP  RH WIND       PRES   REMARKS
BRADFORD       CLOUDY    54  50  86 N6        29.90S
DUBOIS         CLOUDY    54  51  90 W8        29.90F
CLEARFIELD     MOCLDY    57  52  83 W8        29.90S
JOHNSTOWN      CLOUDY    53  48  83 NW10      29.94R
ALTOONA        MOCLDY    58  54  86 VRB6      29.91S
STATE COLLEGE  CLOUDY    60  55  83 NW6       29.88S
WILLIAMSPORT   MOCLDY    61  53  75 W5        29.83S
SELINSGROVE    MOCLDY    60  58  92 CALM      29.85S
FT INDIANTOWN  PTCLDY    64  57  77 VRB6      29.83R
CAPITAL CITY   PTCLDY    62  57  83 W6        29.83R
HARRISBURG     PTCLDY    65  56  72 NW7       29.83R
YORK           CLOUDY    63  59  87 W3        29.83S
$$

PAZ038>040-043-044-047-048-054-055-060>062-067>071-290600-
EASTERN PENNSYLVANIA

CITY           SKY/WX    TMP DP  RH WIND       PRES   REMARKS
SCRANTON       LGT RAIN  60  56  86 NW5       29.81F FOG
MOUNT POCONO   CLOUDY    57  52  83 NW15G23   29.80R
ALLENTOWN      PTCLDY    64  54  69 VRB6      29.78S
QUAKERTOWN*    CLEAR     63  55  77 NW7       29.79S
READING        PTCLDY    64  55  72 NW8       29.80S
LANCASTER      PTCLDY    62  58  86 NW9       29.81S
COATESVILLE    PTCLDY    63  63 100 NW10      29.81S
POTTSTOWN      CLEAR     64  55  72 NW8       29.80R
BLUE BELL      CLEAR     64  59  82 W3        29.77S
DOYLESTOWN     CLEAR     63  57  81 VRB5      29.77R
WILLOW GROVE   NOT AVBL
NORTH PHILA    CLEAR     68  57  68 NW13      29.78R
PHILADELPHIA   PTCLDY    69  57  65 NW16G23   29.78R
$$


USA.gov is the U.S. government's official web portal to all federal, state and local government web resources and services.